Regional Weather Roundup
Issued by NWS

Home | Current Version | Previous Version | Graphics & Text | Print | Product List | Glossary On
Versions: 1 2 3 4 5 6 7 8 9 10 11 12 13 14 15 16 17 18 19 20 21 22 23 24 25 26 27 28 29 30 31 32 33 34 35 36 37 38 39 40 41 42 43 44 45 46 47 48 49 50
730
ASUS44 KLIX 231601
RWRLA
LOUISIANA WEATHER ROUNDUP
NATIONAL WEATHER SERVICE NEW ORLEANS LA
1100 AM CDT THU OCT 23 2014

NOTE: "FAIR" INDICATES FEW OR NO CLOUDS BELOW 12,000 FEET WITH NO
      SIGNIFICANT WEATHER AND/OR OBSTRUCTIONS TO VISIBILITY.
      SKY/WX - SKY CONDITION AND SIGNIFICANT WEATHER.
      TMP - AIR TEMPERATURE.    DP   - DEWPOINT TEMPERATURE.
      RH  - RELATIVE HUMIDITY.  PRES - PRESSURE.
      HX  - HEAT INDEX.         WCI  - WIND CHILL INDEX.

*  THESE STATIONS ARE NOT NWS OR FAA STATIONS AND ARE NOT UNDER
   NWS QUALITY CONTROL.

LAZ040-048-061>063-065-066-069-231700-
SOUTHEAST LOUISIANA

CITY           SKY/WX    TMP DP  RH WIND       PRES   REMARKS
N.O. AUDUBON     N/A     72  56  56 MISG        N/A
N.O. INTL ARPT MOSUNNY   70  52  52 NE10      30.12S
N.O. LAKEFRONT SUNNY     68  51  54 NE12      30.12F
N.O. DOWNTOWN* FAIR      68  48  49 NE3       30.12F
SLIDELL        SUNNY     68  48  48 N8        30.13R
BATON ROUGE    MOSUNNY   67  47  48 E10       30.12F
BOOTHVILLE     SUNNY     73  58  59 NE10      30.09R
BELLE CHASSE   MOSUNNY   70  56  61 NE10      30.11R
BOGALUSA*        N/A     67  46  46 E7        30.16R
NEW ROADS*     FAIR      67  48  51 NE7       30.13S
GONZALES*      FAIR      66  51  58 NE6       30.12F
HAMMOND*       NOT AVBL
HOUMA*         SUNNY     70  57  64 NE8       30.11S
PORT FOURCHON* SUNNY     72  59  64 NE13      30.12S

$$

LAZ041-044-053-054-231700-
SOUTHWEST LOUISIANA

CITY           SKY/WX    TMP DP  RH WIND       PRES   REMARKS
LAKE CHARLES   MOSUNNY   68  53  58 E5        30.13S
LAFAYETTE      SUNNY     67  49  52 VRB3      30.13R
PATTERSON      SUNNY     70  55  60 E8        30.13F
SALT POINT       N/A     71  55  56 VRB6      30.09F
NEW IBERIA     SUNNY     70  50  49 NE6       30.13R
CHENAULT AIRPK PTSUNNY   66  52  59 NE8       30.13S

$$

LAZ027-028-231700-
CENTRAL LOUISIANA

CITY           SKY/WX    TMP DP  RH WIND       PRES   REMARKS
FORT POLK      CLOUDY    63  49  62 NE3       30.15S
ALEXANDRIA INT CLOUDY    64  49  57 NE6       30.15R
ALEXANDRIA     CLOUDY    60  51  72 E3        30.16R

$$

LAZ001-002-231700-
NORTHWEST LOUISIANA

CITY           SKY/WX    TMP DP  RH WIND       PRES   REMARKS
SHREVEPORT     CLOUDY    61  49  64 VRB3      30.18S
BARKSDALE AFB  CLOUDY    59  49  69 NE2       30.19R
DTN SHREVEPORT CLOUDY    58  49  72 NE3       30.19S

$$

LAZ014-016-231700-
NORTHEAST LOUISIANA

CITY           SKY/WX    TMP DP  RH WIND       PRES   REMARKS
MONROE         NOT AVBL
TALLULAH         N/A    N/A N/A N/A MISG      30.17F

$$




USA.gov is the U.S. government's official web portal to all federal, state and local government web resources and services.